TimeCDT,TemperatureF,Dew PointF,Humidity,Sea Level PressureIn,VisibilityMPH,Wind Direction,Wind SpeedMPH,Gust SpeedMPH,PrecipitationIn,Events,Conditions,WindDirDegrees,DateUTC
12:54 AM,59.0,50.0,72,29.86,10.0,NNE,6.9,-,N/A,,Clear,20,2013-06-07 05:54:00
1:54 AM,57.9,51.1,78,29.86,10.0,NNE,4.6,-,N/A,,Mostly Cloudy,20,2013-06-07 06:54:00
2:54 AM,57.9,51.1,78,29.86,10.0,North,6.9,-,N/A,,Mostly Cloudy,360,2013-06-07 07:54:00
3:54 AM,57.9,50.0,75,29.86,10.0,North,6.9,-,N/A,,Overcast,10,2013-06-07 08:54:00
4:54 AM,57.0,50.0,77,29.86,10.0,North,5.8,-,N/A,,Overcast,10,2013-06-07 09:54:00
5:54 AM,55.9,50.0,80,29.87,10.0,Variable,4.6,-,N/A,,Mostly Cloudy,0,2013-06-07 10:54:00
6:54 AM,57.0,50.0,77,29.87,10.0,North,4.6,-,N/A,,Scattered Clouds,360,2013-06-07 11:54:00
7:54 AM,61.0,52.0,72,29.88,10.0,North,11.5,-,N/A,,Clear,350,2013-06-07 12:54:00
8:54 AM,64.0,53.1,67,29.89,10.0,North,9.2,-,N/A,,Clear,360,2013-06-07 13:54:00
9:54 AM,69.1,57.0,65,29.89,10.0,North,8.1,-,N/A,,Clear,10,2013-06-07 14:54:00
10:54 AM,71.1,55.9,59,29.89,10.0,North,10.4,16.1,N/A,,Clear,350,2013-06-07 15:54:00
11:54 AM,73.0,55.9,55,29.89,10.0,North,10.4,-,N/A,,Clear,10,2013-06-07 16:54:00
12:54 PM,73.9,55.9,53,29.88,10.0,North,10.4,-,N/A,,Mostly Cloudy,10,2013-06-07 17:54:00
1:54 PM,72.0,55.0,55,29.88,10.0,North,10.4,-,N/A,,Mostly Cloudy,10,2013-06-07 18:54:00
2:54 PM,73.9,55.0,52,29.86,10.0,North,8.1,-,N/A,,Mostly Cloudy,10,2013-06-07 19:54:00
3:54 PM,75.9,54.0,46,29.86,10.0,North,8.1,-,N/A,,Partly Cloudy,350,2013-06-07 20:54:00
4:54 PM,73.9,54.0,50,29.85,10.0,NNW,5.8,-,N/A,,Overcast,340,2013-06-07 21:54:00
5:54 PM,72.0,55.0,55,29.86,10.0,North,10.4,-,N/A,,Mostly Cloudy,350,2013-06-07 22:54:00
6:54 PM,70.0,55.0,59,29.87,10.0,North,8.1,-,N/A,,Overcast,360,2013-06-07 23:54:00
7:54 PM,68.0,55.0,63,29.88,10.0,North,6.9,-,N/A,,Mostly Cloudy,360,2013-06-08 00:54:00
8:54 PM,64.9,54.0,68,29.89,10.0,North,5.8,-,N/A,,Partly Cloudy,360,2013-06-08 01:54:00
9:54 PM,66.0,55.0,68,29.90,10.0,Calm,Calm,-,N/A,,Mostly Cloudy,0,2013-06-08 02:54:00
10:54 PM,62.1,57.0,84,29.91,10.0,NE,5.8,-,N/A,,Scattered Clouds,50,2013-06-08 03:54:00
11:54 PM,61.0,51.1,70,29.91,10.0,NE,5.8,-,N/A,,Partly Cloudy,40,2013-06-08 04:54:00